Location: Hilton Head Island
(32.2163°N, 80.7526°W)
Time: 08:07:11
(UTC-04:00)

Vanguard 2 Rocket - Pass Details

Date: 23 February 2026
Orbit: 553 x 3286 km, 32.9° (Epoch: 16 March)

Event Time Altitude Azimuth Distance (km) Brightness Sun altitude
Rises 18:26:46 0° 284° (WNW) 6,045 12.6 -3.1°
Reaches altitude 10° 18:32:24 10° 272° (W) 4,502 12.2 -4.3°
Maximum altitude 18:40:28 22° 228° (SW) 2,788 10.2 -5.9°
Drops below altitude 10° 18:46:04 10° 179° (S) 2,981 9.6 -7.1°
Sets 18:48:56 0° 163° (SSE) 3,609 9.9 -7.7°
